User: anonymous   Login
Location: Ostrava
(49.8330°N, 18.2830°E)
Time: 19:27:59
(UTC+02:00)
Language:

ISS - Orbit

View from above orbital plane
View from above orbital plane
View from above satellite
View from above satellite

Ground track
Ground track

The orbit data is extracted from the following two-line orbital elements,

1 25544U 98067A   24196.43688157  .00014232  00000-0  25796-3 0  9998
2 25544  51.6408 180.3357 0010649  64.1421  71.2951 15.49834219462778
Epoch (UTC): 14 July 2024 10:29:06
Eccentricity: 0.0010649
inclination: 51.6408°
perigee height: 410 km
apogee height: 424 km
right ascension of ascending node: 180.3357°
argument of perigee: 64.1421°
revolutions per day: 15.49834219
mean anomaly at epoch: 71.2951°
orbit number at epoch: 46277

The dashed part of the orbit path shows where the satellite is in the earth's shadow,  

DLR